Regional Weather Roundup
Issued by NWS Newport/Morehead, NC

Current Version | Previous Version | Graphics & Text | Print | Product List | Glossary Off
Versions: 1 2 3 4 5 6 7 8 9 10 11 12 13 14 15 16 17 18 19 20 21 22 23 24 25 26 27 28 29 30 31 32 33 34 35 36 37 38 39 40 41 42 43 44 45 46 47 48 49 50
876 ASUS42 KMHX 241726 RWRMHX WEATHER ROUNDUP FOR EASTERN NORTH CAROLINA NATIONAL WEATHER SERVICE NEWPORT/MOREHEAD CITY NC 100 PM EDT SUN SEP 24 2017 NOTE: "FAIR" INDICATES FEW OR NO CLOUDS BELOW 12,000 FEET WITH NO SIGNIFICANT WEATHER AND/OR OBSTRUCTIONS TO VISIBILITY NCZ015>017-031-032-045>047-102-103-241800- NORTH COAST CITY SKY/WX TMP DP RH WIND PRES REMARKS EDENTON SUNNY 85 67 55 CALM 30.05F ELIZABETH CITY SUNNY 85 66 53 NE9 30.04F KITTY HAWK SUNNY 76 67 73 NE7 30.04S MANTEO SUNNY 78 69 73 E12 30.04F $$ NCZ045>047-081-094-103-104-241800- CENTRAL COAST CITY SKY/WX TMP DP RH WIND PRES REMARKS FRISCO MOSUNNY 80 68 66 NE13G23 30.01F $$ NCZ095-097-098-100-101-241800- SOUTHERN COAST CITY SKY/WX TMP DP RH WIND PRES REMARKS BEAUFORT SUNNY 83 68 60 NE16G25 30.00F CEDAR ISLAND NOT AVBL JACKSONVILLE MOSUNNY 84 69 60 NE13 30.00F PINEY ISLAND FLURRIES N/A N/A N/A NE15G22 30.01F WILMINGTON MOSUNNY 84 67 56 NE22 30.00F $$ NCZ011>013-027>030-043-044-078>080-089-090>093-098-241800- COASTAL PLAIN CITY SKY/WX TMP DP RH WIND PRES REMARKS AHOSKIE SUNNY 83 62 48 N7 30.05F CLINTON SUNNY 85 69 58 NE10G17 30.04F ELIZABETHTOWN NOT AVBL GOLDSBORO SUNNY 83 69 63 NE9 30.04F GREENVILLE SUNNY 82 64 54 NE8 30.06F HAVELOCK MOSUNNY 84 68 58 NE17 30.02F KENANSVILLE MOSUNNY 82 68 61 NE3 30.04F KINSTON MOSUNNY 84 66 54 NE7 30.05F NEW BERN MOSUNNY 82 67 60 NE16 30.03F RICHLANDS MOSUNNY 84 69 60 NE15 30.02F ROCKY MOUNT SUNNY 86 65 49 N10 30.06F WASHINGTON MOSUNNY 85 65 52 NE8 30.04F WHITEVILLE MOSUNNY 82 66 58 NE9G18 30.01S $$ AMZ130-135-150-152-154-156-158-170-250-252-270-ANZ085-086-088-633-658-670-241800- MARINE OBSERVATIONS STATION/POSITION TIME TEMP WIND PRES WAVE SWELL AIR SEA DIR/SP/G HT/PER HT/PER (UTC) (F) (DEG/KT/KT) (MB) (FT/S) (FT/S) CHESAPEAKE LIGHT NOT AVBL 64 E VA BEACH 1650 71 71 50/ 8/ 10 1017.9 8/14 8/14 DUCK 1700 75 77 30/ 12/ 12 1017.0 2 E DUCK 1700 76 N/A 4/13 2/13 OREGON INLET 1700 75 77 30/ 9/ 13 1017.0 13E OREGON INLT 1648 75 N/A 7/13 7/13 HATTERAS CG 1700 75 77 30/ 15/ 23 1016.1 DIAMOND BUOY 1650 75 80 30/ 17/ 21 1015.4 8/15 7/15 CAPE LOOKOUT 1700 78 30/ 19/ 24 1015.6 BEAUFORT LAB 1700 81 76 60/ 11/ 19 1015.4 30 SE NEW RVR IN 1708 78 50/ 21/ 29 1014.9 30 SE NEW RVR IN NOT AVBL 27 SE WRIGHTSVLE 1708 78 80 80/ 19/ 29 1014.7 5 SE WRIGHTSVLE 1708 79 78 70/ 14/ 23 1015.6 225 S CAPE HAT 1650 79 80 40/ 27/ 35 1007.7 20/15 16/15 41 SE CHARLESTON 1710 78 81 30/ 19/ 23 1013.8 $$

USA.gov is the U.S. government's official web portal to all federal, state and local government web resources and services.